Year,Month,Day,Hour,Minute,Value (Times are PST for temperature in C)
2009,10,11,08,07,3.10
2009,10,11,08,08,3.10
2009,10,11,08,09,3.20
2009,10,11,08,10,3.20
2009,10,11,08,11,3.30
2009,10,11,08,12,3.30
2009,10,11,08,13,3.30
2009,10,11,08,14,3.40
2009,10,11,08,15,3.40
2009,10,11,08,16,3.40
2009,10,11,08,17,3.50
2009,10,11,08,18,3.50
2009,10,11,08,19,3.50
2009,10,11,08,20,3.50
2009,10,11,08,21,3.60
2009,10,11,08,22,3.60
2009,10,11,08,23,3.60
2009,10,11,08,24,3.60
2009,10,11,08,25,3.70
2009,10,11,08,26,3.70
2009,10,11,08,27,3.70
2009,10,11,08,28,3.70
2009,10,11,08,29,3.70
2009,10,11,08,30,3.80
2009,10,11,08,31,3.80
2009,10,11,08,32,3.80
2009,10,11,08,33,3.90
2009,10,11,08,34,3.90
2009,10,11,08,35,3.90
2009,10,11,08,36,4.00
2009,10,11,08,37,4.10
2009,10,11,08,38,4.10
2009,10,11,08,39,4.20
2009,10,11,08,40,4.20
2009,10,11,08,41,4.30
2009,10,11,08,42,4.40
2009,10,11,08,43,4.50
2009,10,11,08,44,4.60
2009,10,11,08,45,4.80
2009,10,11,08,46,4.90
2009,10,11,08,47,5.10
2009,10,11,08,48,5.30
2009,10,11,08,49,5.50
2009,10,11,08,50,5.70
2009,10,11,08,51,5.90
2009,10,11,08,52,6.10
2009,10,11,08,53,6.20
2009,10,11,08,54,6.40
2009,10,11,08,55,6.60
2009,10,11,08,56,6.80
2009,10,11,08,57,6.90
2009,10,11,08,58,7.00
2009,10,11,08,59,7.20
2009,10,11,09,00,7.30
2009,10,11,09,01,7.40
2009,10,11,09,02,7.60
2009,10,11,09,03,7.70
2009,10,11,09,04,7.90
2009,10,11,09,05,8.00
2009,10,11,09,06,8.10
2009,10,11,09,07,8.20
2009,10,11,09,08,8.30
2009,10,11,09,09,8.40
2009,10,11,09,10,8.50
2009,10,11,09,11,8.60
2009,10,11,09,12,8.70
2009,10,11,09,13,8.80
2009,10,11,09,14,8.90
2009,10,11,09,15,9.00
2009,10,11,09,16,9.10
2009,10,11,09,17,9.10
2009,10,11,09,18,9.20
2009,10,11,09,19,9.30
2009,10,11,09,20,9.40
2009,10,11,09,21,9.50
2009,10,11,09,22,9.60
2009,10,11,09,23,9.60
2009,10,11,09,24,9.70
2009,10,11,09,25,9.80
2009,10,11,09,26,9.80
2009,10,11,09,27,9.90
2009,10,11,09,28,9.90
2009,10,11,09,29,10.00
2009,10,11,09,30,10.10
2009,10,11,09,31,10.10
2009,10,11,09,32,10.20
2009,10,11,09,33,10.30
2009,10,11,09,34,10.30
2009,10,11,09,35,10.30
2009,10,11,09,36,10.30
2009,10,11,09,37,10.30
2009,10,11,09,38,10.30
2009,10,11,09,39,10.30
2009,10,11,09,40,10.30
2009,10,11,09,41,10.40
2009,10,11,09,42,10.40
2009,10,11,09,43,10.40
2009,10,11,09,44,10.40
2009,10,11,09,45,10.30
2009,10,11,09,46,10.30
2009,10,11,09,47,10.20
2009,10,11,09,48,10.20
2009,10,11,09,49,10.20
2009,10,11,09,50,10.20
2009,10,11,09,51,10.20
2009,10,11,09,52,10.10
2009,10,11,09,53,10.20
2009,10,11,09,54,10.10
2009,10,11,09,55,10.20
2009,10,11,09,56,10.20
2009,10,11,09,57,10.30
2009,10,11,09,58,10.30
2009,10,11,09,59,10.40
2009,10,11,10,00,10.40
2009,10,11,10,01,10.50
2009,10,11,10,02,10.50
2009,10,11,10,03,10.60
2009,10,11,10,04,10.70
2009,10,11,10,05,10.80
2009,10,11,10,06,10.80
2009,10,11,10,07,10.80
2009,10,11,10,08,10.80
2009,10,11,10,09,10.90
2009,10,11,10,10,10.90
2009,10,11,10,11,11.00
2009,10,11,10,12,11.10
2009,10,11,10,13,11.20
2009,10,11,10,14,11.30
2009,10,11,10,15,11.30
2009,10,11,10,16,11.30
2009,10,11,10,17,11.30
2009,10,11,10,18,11.20
2009,10,11,10,19,11.20
2009,10,11,10,20,11.20
2009,10,11,10,21,11.30
2009,10,11,10,22,11.20
2009,10,11,10,23,11.10
2009,10,11,10,24,11.10
2009,10,11,10,25,11.10
2009,10,11,10,26,11.20
2009,10,11,10,27,11.10
2009,10,11,10,28,11.10
2009,10,11,10,29,11.20
2009,10,11,10,30,11.30
2009,10,11,10,31,11.30
2009,10,11,10,32,11.40
2009,10,11,10,33,11.40
2009,10,11,10,34,11.50
2009,10,11,10,35,11.60
2009,10,11,10,36,11.60
2009,10,11,10,37,11.60
2009,10,11,10,38,11.60
2009,10,11,10,39,11.70
2009,10,11,10,40,11.70
2009,10,11,10,41,11.70
2009,10,11,10,42,11.70
2009,10,11,10,43,11.70
2009,10,11,10,44,11.80
2009,10,11,10,45,11.80
2009,10,11,10,46,11.70
2009,10,11,10,47,11.70
2009,10,11,10,48,11.70
2009,10,11,10,49,11.70
2009,10,11,10,50,11.70
2009,10,11,10,51,11.80
2009,10,11,10,52,11.80
2009,10,11,10,53,11.90
2009,10,11,10,54,12.00
2009,10,11,10,55,12.10
2009,10,11,10,56,12.10
2009,10,11,10,57,12.10
2009,10,11,10,58,12.10
2009,10,11,10,59,12.10
2009,10,11,11,00,12.10
2009,10,11,11,01,12.10
2009,10,11,11,02,12.10
2009,10,11,11,03,12.10
2009,10,11,11,04,12.00
2009,10,11,11,05,12.00
2009,10,11,11,06,12.00
2009,10,11,11,07,12.00
2009,10,11,11,08,12.10
2009,10,11,11,09,12.10
2009,10,11,11,10,12.20
2009,10,11,11,11,12.20
2009,10,11,11,12,12.30
2009,10,11,11,13,12.30
2009,10,11,11,14,12.30
2009,10,11,11,15,12.40
2009,10,11,11,16,12.40
2009,10,11,11,17,12.30
2009,10,11,11,18,12.30
2009,10,11,11,19,12.30
2009,10,11,11,20,12.30
2009,10,11,11,21,12.30
2009,10,11,11,22,12.40
2009,10,11,11,23,12.50
2009,10,11,11,24,12.50
2009,10,11,11,25,12.50
2009,10,11,11,26,12.50
2009,10,11,11,27,12.60
2009,10,11,11,28,12.60
2009,10,11,11,29,12.60
2009,10,11,11,30,12.60
2009,10,11,11,31,12.60
2009,10,11,11,32,12.70
2009,10,11,11,33,12.70
2009,10,11,11,34,12.80
2009,10,11,11,35,12.80
2009,10,11,11,36,12.80
2009,10,11,11,37,12.80
2009,10,11,11,38,12.80
2009,10,11,11,39,12.90
2009,10,11,11,40,13.00
2009,10,11,11,41,13.00
2009,10,11,11,42,13.10
2009,10,11,11,43,13.10
2009,10,11,11,44,13.20
2009,10,11,11,45,13.20
2009,10,11,11,46,13.20
2009,10,11,11,47,13.10
2009,10,11,11,48,13.00
2009,10,11,11,49,12.90
2009,10,11,11,50,12.80
2009,10,11,11,51,12.70
2009,10,11,11,52,12.70
2009,10,11,11,53,12.70
2009,10,11,11,54,12.70
2009,10,11,11,55,12.70
2009,10,11,11,56,12.70
2009,10,11,11,57,12.60
2009,10,11,11,58,12.60
2009,10,11,11,59,12.50
2009,10,11,12,00,12.50
2009,10,11,12,01,12.50
2009,10,11,12,02,12.50
2009,10,11,12,03,12.60
2009,10,11,12,04,12.60
2009,10,11,12,05,12.60
2009,10,11,12,06,12.60
2009,10,11,12,07,12.60
2009,10,11,12,08,12.70
2009,10,11,12,09,12.70
2009,10,11,12,10,12.80
2009,10,11,12,11,12.80
2009,10,11,12,12,12.80
2009,10,11,12,13,12.80
2009,10,11,12,14,12.80
2009,10,11,12,15,12.80
2009,10,11,12,16,12.90
2009,10,11,12,17,12.90
2009,10,11,12,18,12.90
2009,10,11,12,19,12.90
2009,10,11,12,20,12.90
2009,10,11,12,21,12.80
2009,10,11,12,22,12.70
2009,10,11,12,23,12.70
2009,10,11,12,24,12.70
2009,10,11,12,25,12.70
2009,10,11,12,26,12.70
2009,10,11,12,27,12.70
2009,10,11,12,28,12.70
2009,10,11,12,29,12.80
2009,10,11,12,30,12.70
2009,10,11,12,31,12.70
2009,10,11,12,32,12.70
2009,10,11,12,33,12.70
2009,10,11,12,34,12.80
2009,10,11,12,35,12.80
2009,10,11,12,36,12.80
2009,10,11,12,37,12.80
2009,10,11,12,38,12.70
2009,10,11,12,39,12.70
2009,10,11,12,40,12.70
2009,10,11,12,41,12.70
2009,10,11,12,42,12.70
2009,10,11,12,43,12.80
2009,10,11,12,44,12.80
2009,10,11,12,45,12.90
2009,10,11,12,46,12.90
2009,10,11,12,47,12.90
2009,10,11,12,48,13.00
2009,10,11,12,49,13.10
2009,10,11,12,50,13.20
2009,10,11,12,51,13.20
2009,10,11,12,52,13.20
2009,10,11,12,53,13.20
2009,10,11,12,54,13.20
2009,10,11,12,55,13.30
2009,10,11,12,56,13.30
2009,10,11,12,57,13.30
2009,10,11,12,58,13.30
2009,10,11,12,59,13.10
2009,10,11,13,00,13.00
2009,10,11,13,01,13.00
2009,10,11,13,02,13.00
2009,10,11,13,03,13.00
2009,10,11,13,04,13.00
2009,10,11,13,05,13.10
2009,10,11,13,06,13.20
2009,10,11,13,07,13.30
2009,10,11,13,08,13.20
2009,10,11,13,09,13.10
2009,10,11,13,10,13.00
2009,10,11,13,11,13.00
2009,10,11,13,12,12.90
2009,10,11,13,13,12.90
2009,10,11,13,14,13.00
2009,10,11,13,15,13.00
2009,10,11,13,16,13.00
2009,10,11,13,17,13.10
2009,10,11,13,18,13.10
2009,10,11,13,19,13.10
2009,10,11,13,20,13.10
2009,10,11,13,21,13.10
2009,10,11,13,22,13.20
2009,10,11,13,23,13.10
2009,10,11,13,24,13.10
2009,10,11,13,25,13.10
2009,10,11,13,26,13.10
2009,10,11,13,27,13.00
2009,10,11,13,28,12.90
2009,10,11,13,29,12.80
2009,10,11,13,30,12.80
2009,10,11,13,31,12.80
2009,10,11,13,32,12.90
2009,10,11,13,33,13.00
2009,10,11,13,34,13.10
2009,10,11,13,35,13.20
2009,10,11,13,36,13.20
2009,10,11,13,37,13.20
2009,10,11,13,38,13.20
2009,10,11,13,39,13.20
2009,10,11,13,40,13.10
2009,10,11,13,41,13.00
2009,10,11,13,42,13.10
2009,10,11,13,43,13.10
2009,10,11,13,44,13.10
2009,10,11,13,45,13.10
2009,10,11,13,46,13.20
2009,10,11,13,47,13.10
2009,10,11,13,48,13.00
2009,10,11,13,49,12.90
2009,10,11,13,50,12.80
2009,10,11,13,51,12.80
2009,10,11,13,52,12.80
2009,10,11,13,53,12.90
2009,10,11,13,54,12.90
2009,10,11,13,55,12.80
2009,10,11,13,56,12.80
2009,10,11,13,57,12.70
2009,10,11,13,58,12.60
2009,10,11,13,59,12.60
2009,10,11,14,00,12.60
2009,10,11,14,01,12.60
2009,10,11,14,02,12.60
2009,10,11,14,03,12.50
2009,10,11,14,04,12.50
2009,10,11,14,05,12.40
2009,10,11,14,06,12.30
2009,10,11,14,07,12.30
2009,10,11,14,08,12.20
2009,10,11,14,09,12.20
2009,10,11,14,10,12.20
2009,10,11,14,11,12.20
2009,10,11,14,12,12.20
2009,10,11,14,13,12.20
2009,10,11,14,14,12.10
2009,10,11,14,15,12.10
2009,10,11,14,16,12.10
2009,10,11,14,17,12.10
2009,10,11,14,18,12.10
2009,10,11,14,19,12.10
2009,10,11,14,20,12.10
2009,10,11,14,21,12.10
2009,10,11,14,22,12.10
2009,10,11,14,23,12.10
2009,10,11,14,24,12.10
2009,10,11,14,25,12.10
2009,10,11,14,26,12.10
2009,10,11,14,27,12.20
2009,10,11,14,28,12.20
2009,10,11,14,29,12.20
2009,10,11,14,30,12.10
2009,10,11,14,31,12.10
2009,10,11,14,32,12.10
2009,10,11,14,33,12.00
2009,10,11,14,34,12.00
2009,10,11,14,35,11.90
2009,10,11,14,36,12.00
2009,10,11,14,37,12.00
2009,10,11,14,38,12.00
2009,10,11,14,39,12.00
2009,10,11,14,40,12.10
2009,10,11,14,41,12.10
2009,10,11,14,42,12.10
2009,10,11,14,43,12.00
2009,10,11,14,44,12.00
2009,10,11,14,45,12.00
2009,10,11,14,46,11.90
2009,10,11,14,47,11.90
2009,10,11,14,48,11.90
2009,10,11,14,49,11.90
2009,10,11,14,50,11.80
2009,10,11,14,51,11.80
2009,10,11,14,52,11.80
2009,10,11,14,53,11.80
2009,10,11,14,54,11.80
2009,10,11,14,55,11.80
2009,10,11,14,56,11.80
2009,10,11,14,57,11.80
2009,10,11,14,58,11.90
2009,10,11,14,59,11.90
2009,10,11,15,00,11.90
2009,10,11,15,01,11.90
2009,10,11,15,02,12.00
2009,10,11,15,03,12.00
2009,10,11,15,04,11.90
2009,10,11,15,05,11.90
2009,10,11,15,06,11.90
2009,10,11,15,07,11.90
2009,10,11,15,08,11.90
2009,10,11,15,09,11.90
2009,10,11,15,10,11.90
2009,10,11,15,11,11.90
2009,10,11,15,12,11.90
2009,10,11,15,13,12.00
2009,10,11,15,14,12.00
2009,10,11,15,15,12.00
2009,10,11,15,16,12.00
2009,10,11,15,17,12.00
2009,10,11,15,18,12.00
2009,10,11,15,19,11.90
2009,10,11,15,20,11.90
2009,10,11,15,21,11.90
2009,10,11,15,22,11.90
2009,10,11,15,23,11.90
2009,10,11,15,24,11.90
2009,10,11,15,25,11.90
2009,10,11,15,26,11.90
2009,10,11,15,27,11.90
2009,10,11,15,28,11.90
2009,10,11,15,29,11.90
2009,10,11,15,30,11.90
2009,10,11,15,31,11.90
2009,10,11,15,32,11.90
2009,10,11,15,33,11.90
2009,10,11,15,34,11.90
2009,10,11,15,35,11.90
2009,10,11,15,36,11.90
2009,10,11,15,37,11.90
2009,10,11,15,38,11.90
2009,10,11,15,39,11.90
2009,10,11,15,40,11.90
2009,10,11,15,41,12.00
2009,10,11,15,42,12.00
2009,10,11,15,43,12.00
2009,10,11,15,44,11.90
2009,10,11,15,45,11.90
2009,10,11,15,46,11.90
2009,10,11,15,47,11.90
2009,10,11,15,48,11.90
2009,10,11,15,49,11.90
2009,10,11,15,50,11.80
2009,10,11,15,51,11.80
2009,10,11,15,52,11.80
2009,10,11,15,53,11.80
2009,10,11,15,54,11.80
2009,10,11,15,55,11.80
2009,10,11,15,56,11.80
2009,10,11,15,57,11.80
2009,10,11,15,58,11.80
2009,10,11,15,59,11.80
2009,10,11,16,00,11.70
2009,10,11,16,01,11.70
2009,10,11,16,02,11.70
2009,10,11,16,03,11.70
2009,10,11,16,04,11.70
2009,10,11,16,05,11.70
2009,10,11,16,06,11.70
2009,10,11,16,07,11.70
2009,10,11,16,08,11.70
2009,10,11,16,09,11.70
2009,10,11,16,10,11.70
2009,10,11,16,11,11.70
2009,10,11,16,12,11.70
2009,10,11,16,13,11.70
2009,10,11,16,14,11.70
2009,10,11,16,15,11.60
2009,10,11,16,16,11.60
2009,10,11,16,17,11.60
2009,10,11,16,18,11.60
2009,10,11,16,19,11.60
2009,10,11,16,20,11.70
2009,10,11,16,21,11.70
2009,10,11,16,22,11.70
2009,10,11,16,23,11.70
2009,10,11,16,24,11.60
2009,10,11,16,25,11.60
2009,10,11,16,26,11.60
2009,10,11,16,27,11.60
2009,10,11,16,28,11.60
2009,10,11,16,29,11.60
2009,10,11,16,30,11.60
2009,10,11,16,31,11.60
2009,10,11,16,32,11.60
2009,10,11,16,33,11.60
2009,10,11,16,34,11.60
2009,10,11,16,35,11.60
2009,10,11,16,36,11.60
2009,10,11,16,37,11.60
2009,10,11,16,38,11.60
2009,10,11,16,39,11.60
2009,10,11,16,40,11.60
2009,10,11,16,41,11.60
2009,10,11,16,42,11.60
2009,10,11,16,43,11.60
2009,10,11,16,44,11.60
2009,10,11,16,45,11.60
2009,10,11,16,46,11.60
2009,10,11,16,47,11.60
2009,10,11,16,48,11.60
2009,10,11,16,49,11.60
2009,10,11,16,50,11.60
